Location: Kalberh�ni
(46.4610°N, 7.2453°E)
Time: 21:06:32
(UTC+00:00)

FENGYUN 1C DEB - Visible Passes

Search period start: 24 January 2022 00:00
Search period end: 03 February 2022 00:00
Orbit: 540 x 994 km, 98.4° (Epoch: 23 January)

Date Brightness Start Highest point End Pass type
(mag) Time Alt. Az. Time Alt. Az. Time Alt. Az.
24 Jan ? 18:09:51 10° NNE 18:09:51 10° NNE 18:10:02 10° NNE visible
24 Jan ? 19:50:05 16° N 19:50:05 16° N 19:51:18 10° N visible
25 Jan ? 19:13:23 17° N 19:13:23 17° N 19:14:53 10° N visible
25 Jan ? 20:53:37 12° NNW 20:53:37 12° NNW 20:54:07 10° NNW visible
26 Jan ? 18:36:40 14° NNE 18:36:40 14° NNE 18:38:04 10° NNE visible
26 Jan ? 20:16:55 17° NNW 20:16:55 17° NNW 20:18:14 10° NNW visible
27 Jan ? 17:59:58 10° NNE 17:59:58 10° NNE 18:00:08 10° NNE visible
27 Jan ? 19:40:12 20° N 19:40:12 20° N 19:42:01 10° N visible
27 Jan ? 21:20:27 10° NNW 21:20:27 10° NNW 21:20:35 10° NNW visible
28 Jan ? 19:03:30 19° NNE 19:03:30 19° NNE 19:05:31 10° N visible
28 Jan ? 20:43:44 16° NNW 20:43:44 16° NNW 20:44:58 10° NNW visible
29 Jan ? 18:26:48 15° NNE 18:26:48 15° NNE 18:28:34 10° NNE visible
29 Jan ? 20:07:02 21° N 20:07:02 21° N 20:08:58 10° NNW visible
30 Jan ? 19:30:20 23° N 19:30:20 23° N 19:32:41 10° N visible
30 Jan ? 21:10:34 14° NW 21:10:34 14° NW 21:11:31 10° NNW visible
31 Jan ? 18:53:38 20° NNE 18:53:38 20° NNE 18:56:05 10° N visible
31 Jan ? 20:33:52 21° NNW 20:33:52 21° NNW 20:35:46 10° NNW visible
01 Feb ? 18:16:55 14° NE 18:16:55 14° NE 18:18:57 10° NNE visible
01 Feb ? 19:57:09 25° N 19:57:09 25° N 19:59:40 10° N visible
01 Feb ? 21:37:23 11° NW 21:37:23 11° NW 21:37:43 10° NW visible
02 Feb ? 19:20:27 25° NNE 19:20:27 25° NNE 19:23:18 10° N visible
02 Feb ? 21:00:41 18° NW 21:00:41 18° NW 21:02:22 10° NNW visible
